Regional Weather Roundup
Issued by NWS

Home | Current Version | Previous Version | Graphics & Text | Print | Product List | Glossary On
Versions: 1 2 3 4 5 6 7 8 9 10 11 12 13 14 15 16 17 18 19 20 21 22 23 24 25 26 27 28 29 30 31 32 33 34 35 36 37 38 39 40 41 42 43 44 45 46 47 48 49 50
460
ASUS45 KBOI 250210
RWRID

IDAHO REGIONAL WEATHER ROUNDUP
NATIONAL WEATHER SERVICE BOISE ID
800 PM MDT SUN JUL 24 2016

NOTE: "FAIR" INDICATES FEW OR NO CLOUDS BELOW 12000 FEET
WITH NO SIGNIFICANT WEATHER AND/OR OBSTRUCTIONS TO VISIBILITY

IDZ012-014-250300-
SOUTHWEST IDAHO


CITY           SKY/WX    TMP DP  RH WIND       PRES   REMARKS
BOISE          SUNNY     90  33  13 W10       29.95F
CALDWELL       NOT AVBL
MOUNTAIN HOME  SUNNY     92  32  12 N12       29.95F
$$

IDZ016-017-250300-
SOUTHCENTRAL IDAHO


CITY           SKY/WX    TMP DP  RH WIND       PRES   REMARKS
BURLEY         CLEAR     78  50  37 SW3       30.03S
JEROME         SUNNY     85  39  19 SW5       30.04S
TWIN FALLS     SUNNY     85  26  11 NW3       30.04F
$$

IDZ019>023-250300-
SOUTHEAST IDAHO


CITY           SKY/WX    TMP DP  RH WIND       PRES   REMARKS
IDAHO FALLS    CLEAR     84  30  14 S8        30.10S
POCATELLO      CLEAR     86  24  10 SW6       30.07F
REXBURG        CLEAR     82  28  14 SW5       30.11S
$$

IDZ006-010-011-018-031-032-250300-
CENTRAL IDAHO MOUNTAINS


CITY           SKY/WX    TMP DP  RH WIND       PRES   REMARKS
MCCALL         SUNNY     81  32  17 W6        30.12S
HAILEY         SUNNY     81  43  26 S8        30.13S
STANLEY        NOT AVBL
SALMON         SUNNY     84  46  26 NW5       29.96F
CHALLIS        SUNNY     88  35  15 N5        30.03F
$$

IDZ002-004-006-007-026-250300-
NORTHERN IDAHO


CITY           SKY/WX    TMP DP  RH WIND       PRES   REMARKS
LEWISTON       SUNNY     91  40  16 NW3       29.93F
LOWELL           N/A     74  54  49 CALM      29.94S
COEUR D`ALENE  SUNNY     82  48  30 SW5       29.97F
MULLAN PASS    SUNNY     66  46  48 MISG      30.21F
$$




USA.gov is the U.S. government's official web portal to all federal, state and local government web resources and services.